Location: Blangy-Tronville
(49.8790°N, 2.4226°E)
Time: 00:02:39
(UTC+00:00)

Timation 1 Rocket - Pass Details

Date: 18 November 2025
Orbit: 898 x 905 km, 70.0° (Epoch: 04 December)

Event Time Altitude Azimuth Distance (km) Brightness Sun altitude
Rises 16:49:35 0° 329° (NNW) 3,529 7.6 -7.6°
Reaches altitude 10° 16:52:06 10° 332° (NNW) 2,585 6.8 -8.0°
Maximum altitude 16:58:04 69° 56° (NE) 961 4.3 -8.9°
Drops below altitude 10° 17:04:00 10° 140° (SE) 2,574 6.5 -9.8°
Sets 17:06:30 0° 143° (SE) 3,512 7.2 -10.2°
